| time (UTC) | temp C | wind direction | speed KPH | gust KPH | rain 1hr cm | rain 24hr cm | rain mn cm | humidity % | barometer mb |
| 20260510113604 | 3 | 9 | 14.5 | 24.1 | 0.00 | 0.00 | 0.00 | 57 | 1025.0 |
| 20260510113105 | 3 | 10 | 14.5 | 25.7 | 0.00 | 0.00 | 0.00 | 57 | 1025.1 |
| 20260510111604 | 3 | 10 | 12.9 | 22.5 | 0.00 | 0.00 | 0.00 | 56 | 1025.0 |
| 20260510111104 | 3 | 10 | 16.1 | 22.5 | 0.00 | 0.00 | 0.00 | 55 | 1025.0 |
| 20260510110104 | 3 | 9 | 14.5 | 25.7 | 0.00 | 0.00 | 0.00 | 55 | 1025.0 |
| 20260510104605 | 3 | 10 | 17.7 | 29.0 | 0.00 | 0.00 | 0.00 | 54 | 1024.8 |
| 20260510104104 | 3 | 10 | 16.1 | 25.7 | 0.00 | 0.00 | 0.00 | 55 | 1024.8 |
| 20260510103604 | 3 | 10 | 17.7 | 27.4 | 0.00 | 0.00 | 0.00 | 55 | 1024.7 |
| 20260510101104 | 3 | 10 | 16.1 | 22.5 | 0.00 | 0.00 | 0.00 | 54 | 1024.6 |
| 20260510100604 | 3 | 10 | 16.1 | 27.4 | 0.00 | 0.00 | 0.00 | 54 | 1024.5 |
| 20260510100104 | 3 | 10 | 11.3 | 24.1 | 0.00 | 0.00 | 0.00 | 54 | 1024.5 |
| 20260510094605 | 4 | 10 | 14.5 | 20.9 | 0.00 | 0.00 | 0.00 | 53 | 1024.5 |
| 20260510094104 | 3 | 9 | 12.9 | 22.5 | 0.00 | 0.00 | 0.00 | 54 | 1024.4 |
| 20260510093105 | 3 | 10 | 14.5 | 27.4 | 0.00 | 0.00 | 0.00 | 55 | 1024.5 |
| 20260510091604 | 2 | 11 | 11.3 | 22.5 | 0.00 | 0.00 | 0.00 | 59 | 1024.2 |
| 20260510091104 | 2 | 11 | 14.5 | 24.1 | 0.00 | 0.00 | 0.00 | 60 | 1024.1 |
| 20260510090604 | 2 | 11 | 4.8 | 24.1 | 0.00 | 0.00 | 0.00 | 63 | 1024.0 |
| 20260510090105 | 2 | 10 | 11.3 | 19.3 | 0.00 | 0.00 | 0.00 | 60 | 1023.9 |
| 20260510084604 | 2 | 10 | 4.8 | 9.7 | 0.00 | 0.00 | 0.00 | 60 | 1023.7 |
| 20260510083604 | 3 | 11 | 8.0 | 19.3 | 0.00 | 0.00 | 0.00 | 56 | 1023.7 |
| 20260510083104 | 3 | 10 | 11.3 | 20.9 | 0.00 | 0.00 | 0.00 | 55 | 1023.6 |
| 20260510081604 | 3 | 11 | 12.9 | 25.7 | 0.00 | 0.00 | 0.00 | 53 | 1023.6 |
| 20260510080604 | 3 | 10 | 8.0 | 19.3 | 0.00 | 0.00 | 0.00 | 54 | 1023.6 |
| 20260510080104 | 3 | 9 | 4.8 | 14.5 | 0.00 | 0.00 | 0.00 | 55 | 1023.5 |
| 20260510074604 | 4 | 10 | 11.3 | 20.9 | 0.00 | 0.00 | 0.00 | 52 | 1023.5 |
| 20260510073605 | 3 | 10 | 9.7 | 16.1 | 0.00 | 0.00 | 0.00 | 54 | 1023.5 |
| 20260510073104 | 3 | 10 | 8.0 | 19.3 | 0.00 | 0.00 | 0.00 | 55 | 1023.5 |
| 20260510071604 | 3 | 10 | 3.2 | 16.1 | 0.00 | 0.00 | 0.00 | 58 | 1023.5 |
| 20260510071104 | 3 | 10 | 4.8 | 9.7 | 0.00 | 0.00 | 0.00 | 54 | 1023.4 |
| 20260510070604 | 3 | 11 | 3.2 | 9.7 | 0.00 | 0.00 | 0.00 | 55 | 1023.4 |
| 20260510064605 | 3 | 11 | 0.0 | 3.2 | 0.00 | 0.00 | 0.00 | 56 | 1023.2 |
| 20260510064105 | 3 | 11 | 1.6 | 3.2 | 0.00 | 0.00 | 0.00 | 55 | 1023.2 |
| 20260510063605 | 3 | 13 | 1.6 | 4.8 | 0.00 | 0.00 | 0.00 | 57 | 1023.1 |
| 20260510063105 | 3 | 13 | 1.6 | 4.8 | 0.00 | 0.00 | 0.00 | 57 | 1023.0 |
| 20260510061605 | 3 | 13 | 1.6 | 3.2 | 0.00 | 0.00 | 0.00 | 57 | 1022.8 |
| 20260510061107 | 3 | 13 | 1.6 | 4.8 | 0.00 | 0.00 | 0.00 | 57 | 1022.7 |
| 20260510060604 | 3 | 13 | 3.2 | 4.8 | 0.00 | 0.00 | 0.00 | 57 | 1022.7 |
| 20260510060104 | 3 | 13 | 3.2 | 4.8 | 0.00 | 0.00 | 0.00 | 57 | 1022.7 |
| 20260510054604 | 3 | 13 | 3.2 | 4.8 | 0.00 | 0.00 | 0.00 | 55 | 1022.6 |
| 20260510054105 | 3 | 12 | 0.0 | 1.6 | 0.00 | 0.00 | 0.00 | 54 | 1022.5 |
| 20260510053605 | 3 | 12 | 1.6 | 3.2 | 0.00 | 0.00 | 0.00 | 52 | 1022.3 |
| 20260510051604 | 4 | 9 | 1.6 | 3.2 | 0.00 | 0.00 | 0.00 | 54 | 1022.2 |
| 20260510051104 | 4 | 9 | 0.0 | 3.2 | 0.00 | 0.00 | 0.00 | 50 | 1022.3 |
| 20260510050604 | 4 | 9 | 1.6 | 3.2 | 0.00 | 0.00 | 0.00 | 49 | 1022.2 |
| 20260510050104 | 5 | 9 | 1.6 | 8.0 | 0.00 | 0.00 | 0.00 | 50 | 1022.2 |
| 20260510044604 | 5 | 9 | 0.0 | 3.2 | 0.00 | 0.00 | 0.00 | 44 | 1022.0 |
| 20260510044105 | 6 | 9 | 1.6 | 4.8 | 0.00 | 0.00 | 0.00 | 48 | 1022.0 |
| 20260510043604 | 6 | 8 | 3.2 | 4.8 | 0.00 | 0.00 | 0.00 | 43 | 1022.0 |
| 20260510043104 | 6 | 9 | 3.2 | 8.0 | 0.00 | 0.00 | 0.00 | 44 | 1021.9 |
| 20260510041104 | 6 | 9 | 4.8 | 4.8 | 0.00 | 0.00 | 0.00 | 42 | 1021.8 |
| 20260510040604 | 6 | 9 | 3.2 | 4.8 | 0.00 | 0.00 | 0.00 | 42 | 1021.8 |
| 20260510040104 | 6 | 9 | 3.2 | 9.7 | 0.00 | 0.00 | 0.00 | 41 | 1021.8 |
| 20260510034605 | 6 | 9 | 1.6 | 4.8 | 0.00 | 0.00 | 0.00 | 42 | 1021.5 |
| 20260510034104 | 6 | 9 | 1.6 | 4.8 | 0.00 | 0.00 | 0.00 | 42 | 1021.3 |
| 20260510033604 | 6 | 9 | 3.2 | 4.8 | 0.00 | 0.00 | 0.00 | 40 | 1021.2 |
| 20260510031604 | 7 | 9 | 4.8 | 4.8 | 0.00 | 0.00 | 0.00 | 39 | 1020.7 |
| 20260510031104 | 7 | 9 | 4.8 | 8.0 | 0.00 | 0.00 | 0.00 | 39 | 1020.6 |
| 20260510030604 | 7 | 9 | 4.8 | 4.8 | 0.00 | 0.00 | 0.00 | 40 | 1020.5 |
| 20260510030104 | 8 | 9 | 4.8 | 8.0 | 0.00 | 0.00 | 0.00 | 40 | 1020.3 |
| 20260510024604 | 8 | 9 | 4.8 | 4.8 | 0.00 | 0.00 | 0.00 | 38 | 1020.1 |
| 20260510024104 | 9 | 9 | 4.8 | 8.0 | 0.00 | 0.00 | 0.00 | 36 | 1020.1 |
| 20260510023604 | 10 | 15 | 1.6 | 3.2 | 0.00 | 0.00 | 0.00 | 34 | 1020.1 |
| 20260510023104 | 10 | 15 | 3.2 | 4.8 | 0.00 | 0.00 | 0.00 | 32 | 1020.0 |
| 20260510021104 | 11 | 15 | 0.0 | 0.0 | 0.00 | 0.00 | 0.00 | 29 | 1019.8 |
| 20260510014604 | 12 | 14 | 1.6 | 3.2 | 0.00 | 0.00 | 0.00 | 25 | 1019.5 |
| 20260510014104 | 12 | 15 | 3.2 | 9.7 | 0.00 | 0.00 | 0.00 | 24 | 1019.5 |
| 20260510013104 | 12 | 14 | 1.6 | 16.1 | 0.00 | 0.00 | 0.00 | 23 | 1019.5 |
| 20260510011604 | 13 | 14 | 4.8 | 11.3 | 0.00 | 0.00 | 0.00 | 22 | 1019.5 |
| 20260510010104 | 13 | 14 | 6.4 | 16.1 | 0.00 | 0.00 | 0.00 | 23 | 1019.5 |
| 20260510004604 | 14 | 257 | 3.2 | 8.0 | 0.00 | 0.00 | 0.00 | 22 | 1019.5 |
| 20260510004104 | 14 | 269 | 8.0 | 16.1 | 0.00 | 0.00 | 0.00 | 22 | 1019.4 |
| 20260510001604 | 15 | 256 | 9.7 | 19.3 | 0.00 | 0.00 | 0.00 | 20 | 1019.3 |
| 20260510001104 | 15 | 269 | 8.0 | 19.3 | 0.00 | 0.00 | 0.00 | 20 | 1019.4 |
| 20260510000604 | 15 | 259 | 6.4 | 19.3 | 0.00 | 0.00 | 0.00 | 21 | 1019.3 |
| 20260510000104 | 15 | 63 | 4.8 | 19.3 | 0.00 | 0.00 | 0.00 | 21 | 1019.2 |
| 20260509234604 | 15 | 9 | 3.2 | 19.3 | 0.00 | 0.00 | 0.00 | 20 | 1019.3 |
| 20260509234104 | 15 | 14 | 12.9 | 24.1 | 0.00 | 0.00 | 0.00 | 20 | 1019.2 |
| 20260509233604 | 15 | 14 | 9.7 | 24.1 | 0.00 | 0.00 | 0.00 | 21 | 1019.1 |
| 20260509233104 | 15 | 13 | 6.4 | 22.5 | 0.00 | 0.00 | 0.00 | 19 | 1019.0 |
| 20260509231104 | 15 | 12 | 9.7 | 19.3 | 0.00 | 0.00 | 0.00 | 20 | 1019.0 |
| 20260509230604 | 16 | 14 | 9.7 | 19.3 | 0.00 | 0.00 | 0.00 | 19 | 1019.1 |
| 20260509230105 | 16 | 14 | 8.0 | 32.2 | 0.00 | 0.00 | 0.00 | 19 | 1019.0 |
| 20260509224604 | 16 | 15 | 12.9 | 25.7 | 0.00 | 0.00 | 0.00 | 18 | 1018.7 |
| 20260509224104 | 16 | 14 | 9.7 | 19.3 | 0.00 | 0.00 | 0.00 | 19 | 1018.7 |
| 20260509223104 | 16 | 12 | 11.3 | 29.0 | 0.00 | 0.00 | 0.00 | 19 | 1018.7 |
| 20260509221605 | 16 | 11 | 6.4 | 16.1 | 0.00 | 0.00 | 0.00 | 17 | 1018.8 |
| 20260509221106 | 16 | 14 | 4.8 | 22.5 | 0.00 | 0.00 | 0.00 | 18 | 1018.8 |
| 20260509220605 | 17 | 14 | 9.7 | 25.7 | 0.00 | 0.00 | 0.00 | 18 | 1018.8 |
| 20260509220105 | 17 | 9 | 8.0 | 20.9 | 0.00 | 0.00 | 0.00 | 18 | 1018.8 |
| 20260509214605 | 17 | 11 | 8.0 | 24.1 | 0.00 | 0.00 | 0.00 | 18 | 1018.9 |
| 20260509214104 | 16 | 15 | 11.3 | 19.3 | 0.00 | 0.00 | 0.00 | 18 | 1018.9 |
| 20260509213605 | 17 | 13 | 11.3 | 24.1 | 0.00 | 0.00 | 0.00 | 18 | 1018.7 |
| 20260509213105 | 17 | 10 | 4.8 | 27.4 | 0.00 | 0.00 | 0.00 | 17 | 1018.9 |
| 20260509211605 | 16 | 14 | 6.4 | 20.9 | 0.00 | 0.00 | 0.00 | 16 | 1018.9 |
| 20260509211105 | 16 | 13 | 8.0 | 19.3 | 0.00 | 0.00 | 0.00 | 15 | 1018.9 |
| 20260509210605 | 17 | 14 | 8.0 | 22.5 | 0.00 | 0.00 | 0.00 | 18 | 1018.9 |
| 20260509210105 | 17 | 11 | 6.4 | 22.5 | 0.00 | 0.00 | 0.00 | 16 | 1018.7 |
| 20260509204605 | 17 | 10 | 4.8 | 19.3 | 0.00 | 0.00 | 0.00 | 19 | 1018.7 |
| 20260509204106 | 16 | 13 | 4.8 | 19.3 | 0.00 | 0.00 | 0.00 | 17 | 1018.7 |
| 20260509203605 | 16 | 14 | 9.7 | 19.3 | 0.00 | 0.00 | 0.00 | 18 | 1018.8 |
| 20260509201605 | 17 | 14 | 11.3 | 29.0 | 0.00 | 0.00 | 0.00 | 17 | 1018.9 |
| 20260509201105 | 17 | 14 | 8.0 | 19.3 | 0.00 | 0.00 | 0.00 | 18 | 1018.8 |
| 20260509200605 | 16 | 14 | 14.5 | 27.4 | 0.00 | 0.00 | 0.00 | 18 | 1018.9 |
| 20260509200105 | 16 | 14 | 11.3 | 24.1 | 0.00 | 0.00 | 0.00 | 19 | 1018.9 |
| 20260509194605 | 16 | 14 | 8.0 | 24.1 | 0.00 | 0.00 | 0.00 | 16 | 1018.8 |
| 20260509194104 | 16 | 12 | 12.9 | 27.4 | 0.00 | 0.00 | 0.00 | 16 | 1018.7 |
| 20260509193605 | 16 | 13 | 11.3 | 25.7 | 0.00 | 0.00 | 0.00 | 19 | 1018.7 |
| 20260509193105 | 16 | 12 | 9.7 | 32.2 | 0.00 | 0.00 | 0.00 | 19 | 1018.8 |
| 20260509191605 | 16 | 12 | 6.4 | 25.7 | 0.00 | 0.00 | 0.00 | 20 | 1018.6 |
| 20260509190605 | 17 | 14 | 11.3 | 27.4 | 0.00 | 0.00 | 0.00 | 20 | 1018.5 |
| 20260509190105 | 17 | 14 | 6.4 | 25.7 | 0.00 | 0.00 | 0.00 | 20 | 1018.5 |
| 20260509184604 | 16 | 13 | 6.4 | 14.5 | 0.00 | 0.00 | 0.00 | 19 | 1018.7 |
| 20260509184105 | 16 | 14 | 8.0 | 16.1 | 0.00 | 0.00 | 0.00 | 19 | 1018.8 |
| 20260509183605 | 16 | 14 | 12.9 | 25.7 | 0.00 | 0.00 | 0.00 | 19 | 1018.9 |
| 20260509183105 | 16 | 14 | 8.0 | 24.1 | 0.00 | 0.00 | 0.00 | 18 | 1018.8 |
| 20260509181605 | 16 | 14 | 4.8 | 33.8 | 0.00 | 0.00 | 0.00 | 19 | 1018.9 |
| 20260509181105 | 17 | 12 | 8.0 | 16.1 | 0.00 | 0.00 | 0.00 | 20 | 1018.8 |
| 20260509180605 | 16 | 13 | 6.4 | 19.3 | 0.00 | 0.00 | 0.00 | 21 | 1018.8 |
| 20260509180105 | 16 | 14 | 4.8 | 19.3 | 0.00 | 0.00 | 0.00 | 21 | 1019.0 |
| 20260509174604 | 16 | 14 | 8.0 | 19.3 | 0.00 | 0.00 | 0.00 | 19 | 1019.2 |
| 20260509174105 | 15 | 14 | 6.4 | 19.3 | 0.00 | 0.00 | 0.00 | 22 | 1019.2 |
| 20260509173605 | 15 | 14 | 8.0 | 27.4 | 0.00 | 0.00 | 0.00 | 17 | 1019.1 |
| 20260509173105 | 15 | 14 | 4.8 | 20.9 | 0.00 | 0.00 | 0.00 | 19 | 1019.1 |
| 20260509171605 | 15 | 14 | 4.8 | 19.3 | 0.00 | 0.00 | 0.00 | 21 | 1019.3 |
| 20260509170605 | 14 | 9 | 8.0 | 19.3 | 0.00 | 0.00 | 0.00 | 22 | 1019.3 |
| 20260509170105 | 13 | 14 | 8.0 | 19.3 | 0.00 | 0.00 | 0.00 | 21 | 1019.2 |
| 20260509164605 | 13 | 13 | 8.0 | 16.1 | 0.00 | 0.00 | 0.00 | 19 | 1019.1 |
| 20260509164105 | 13 | 15 | 9.7 | 20.9 | 0.00 | 0.00 | 0.00 | 19 | 1019.2 |
| 20260509163605 | 15 | 14 | 12.9 | 19.3 | 0.00 | 0.00 | 0.00 | 19 | 1019.2 |
| 20260509163105 | 15 | 14 | 6.4 | 19.3 | 0.00 | 0.00 | 0.00 | 24 | 1019.0 |
| 20260509161605 | 13 | 14 | 9.7 | 22.5 | 0.00 | 0.00 | 0.00 | 21 | 1018.9 |
| 20260509161105 | 13 | 14 | 6.4 | 14.5 | 0.00 | 0.00 | 0.00 | 24 | 1019.1 |
| 20260509160605 | 13 | 14 | 3.2 | 11.3 | 0.00 | 0.00 | 0.00 | 27 | 1019.0 |
| 20260509160105 | 13 | 13 | 1.6 | 14.5 | 0.00 | 0.00 | 0.00 | 25 | 1018.9 |
| 20260509154604 | 12 | 14 | 8.0 | 9.7 | 0.00 | 0.00 | 0.00 | 26 | 1019.0 |
| 20260509154105 | 12 | 14 | 8.0 | 9.7 | 0.00 | 0.00 | 0.00 | 26 | 1018.9 |
| 20260509153105 | 12 | 14 | 8.0 | 11.3 | 0.00 | 0.00 | 0.00 | 27 | 1018.9 |
| 20260509151604 | 12 | 15 | 4.8 | 8.0 | 0.00 | 0.00 | 0.00 | 28 | 1018.8 |
| 20260509151104 | 12 | 13 | 3.2 | 8.0 | 0.00 | 0.00 | 0.00 | 29 | 1018.8 |
| 20260509150604 | 11 | 12 | 3.2 | 9.7 | 0.00 | 0.00 | 0.00 | 30 | 1018.7 |
| 20260509150105 | 11 | 13 | 4.8 | 9.7 | 0.00 | 0.00 | 0.00 | 29 | 1018.8 |
| 20260509144105 | 10 | 12 | 4.8 | 8.0 | 0.00 | 0.00 | 0.00 | 41 | 1018.8 |
| 20260509143605 | 10 | 12 | 6.4 | 8.0 | 0.00 | 0.00 | 0.00 | 41 | 1018.9 |
| 20260509141605 | 8 | 10 | 0.0 | 1.6 | 0.00 | 0.00 | 0.00 | 47 | 1019.0 |
| 20260509140604 | 7 | 11 | 1.6 | 1.6 | 0.00 | 0.00 | 0.00 | 51 | 1019.1 |
| 20260509140105 | 7 | 11 | 1.6 | 4.8 | 0.00 | 0.00 | 0.00 | 49 | 1019.2 |
| 20260509134604 | 7 | 9 | 0.0 | 0.0 | 0.00 | 0.00 | 0.00 | 49 | 1019.2 |
| 20260509134105 | 7 | 15 | 0.0 | 0.0 | 0.00 | 0.00 | 0.00 | 48 | 1019.3 |
| 20260509133604 | 7 | 15 | 0.0 | 0.0 | 0.00 | 0.00 | 0.00 | 50 | 1019.3 |
| 20260509133105 | 7 | 15 | 0.0 | 0.0 | 0.00 | 0.00 | 0.00 | 52 | 1019.4 |
| 20260509131605 | 5 | 15 | 0.0 | 0.0 | 0.00 | 0.00 | 0.00 | 50 | 1019.5 |
| 20260509131104 | 4 | 15 | 0.0 | 3.2 | 0.00 | 0.00 | 0.00 | 51 | 1019.4 |
| 20260509130605 | 4 | 15 | 1.6 | 3.2 | 0.00 | 0.00 | 0.00 | 52 | 1019.4 |
| 20260509130105 | 3 | 14 | 0.0 | 4.8 | 0.00 | 0.00 | 0.00 | 54 | 1019.3 |
| 20260509124605 | 3 | 6 | 0.0 | 1.6 | 0.00 | 0.00 | 0.00 | 55 | 1018.9 |
| 20260509124105 | 3 | 5 | 0.0 | 1.6 | 0.00 | 0.00 | 0.00 | 57 | 1018.9 |
| 20260509123605 | 3 | 5 | 0.0 | 0.0 | 0.00 | 0.00 | 0.00 | 55 | 1018.9 |
| 20260509123104 | 3 | 5 | 1.6 | 4.8 | 0.00 | 0.00 | 0.00 | 58 | 1018.9 |
| 20260509121104 | 3 | 13 | 0.0 | 3.2 | 0.00 | 0.00 | 0.00 | 58 | 1018.8 |
| 20260509120605 | 3 | 13 | 1.6 | 3.2 | 0.00 | 0.00 | 0.00 | 59 | 1018.7 |
| 20260509114604 | 3 | 9 | 3.2 | 4.8 | 0.00 | 0.00 | 0.00 | 59 | 1018.4 |
| 20260509114104 | 3 | 5 | 0.0 | 1.6 | 0.00 | 0.00 | 0.00 | 59 | 1018.3 |